Location: Beneden-Haastrecht
(52.0012°N, 4.7557°E)
Time: 11:13:39
(UTC+00:00)

X-37B - Pass Details

Date: 23 January 2021
Orbit: 383 x 391 km, 45.0° (Epoch: 27 February)

Event Time Altitude Azimuth Distance (km) Brightness Sun altitude
Rises 17:46:52 0° 234° (SW) 2,269 5.8 -14.2°
Reaches altitude 10° 17:49:17 10° 216° (SW) 1,418 4.1 -14.5°
Maximum altitude 17:51:41 20° 167° (SSE) 985 2.6 -14.9°
Enters shadow 17:52:53 16° 138° (SE) 1,112 2.6 -15.1°
